Погода в Филадельфии

Парагвай     22°21′29″S   60°03′14″W
темп.,
°C
ветер,
м/с
пор.,
м/с
влажн.,
%
обл.,
%
осадки,
мм/ч
давл.,
гПа
погр.,
м
1 марта, пн
пн100:00+27в34520 0.0 100774
03:00+25вюв23600 0.0 100638
06:00+23в23680 0.0 100739
09:00+29в23530 0.0 1008304
12:00+35юв35310 0.0 10072394
15:00+39юв45223 0.0 10033092
18:00+37вюв452573 0.0 10022067
21:00+30в454457 0.0 100397
2 марта, вт
вт200:00+27всв48530 0.0 1006188
03:00+26св366424 0.0 1006146
06:00+24ссв347640 0.0 1007114
09:00+29ссв346023 0.0 1009393
12:00+35св32373 0.0 10082153
15:00+38вюв322711 0.0 10052793
18:00+35ююв353175 0.0 1004164
21:00+32всв364281 0.0 1006143
3 марта, ср
ср300:00+28всв36541 0.0 1008113
03:00+26ссв36642 0.0 1008120
06:00+25св34760 0.4 100899
09:00+29св46630 0.7 1010414
12:00+36с32360 0.0 10092105
15:00+37юв113027 0.0 10062667
18:00+35всв243476 0.0 1004205
21:00+31в224888 0.4 100627
4 марта, чт
чт400:00+25св597891 1.9 1008208
03:00+23вюв349162 2.2 100897
06:00+22с28950 1.9 1008300
09:00+25с468644 3.4 1010474
12:00+33сз454991 0.0 10091288
15:00+34юз864588 0.3 10071569
18:00+27ююв71073100 4.8 1005830
21:00+24юв2687100 5.4 1008275
5 марта, пт
пт500:00+22ю369463 1.9 1010263
03:00+22юз349157 2.6 1008123
06:00+22зюз249192 0.1 1008152
09:00+25зюз357881 0.1 1009351
12:00+30зюз345155 0.1 10081358
15:00+32юз564455 0.1 10051766
18:00+33юз363840 0.0 10032231
21:00+28юз124930 0.0 100545